Location: Mahannah Oil Field
(37.4664°N, 96.6003°W)
Time: 15:26:59
(UTC+00:00)

Vanguard 2 Rocket - Pass Details

Date: 24 June 2021
Orbit: 554 x 3325 km, 32.9° (Epoch: 24 July)

Event Time Altitude Azimuth Distance (km) Brightness Sun altitude
Rises 07:05:45 0° 282° (WNW) 6,622 11.3 -28.5°
Reaches altitude 10° 07:11:41 10° 272° (W) 5,150 10.6 -28.3°
Enters shadow 07:19:06 23° 244° (WSW) 3,513 9.5 -28.0°
